{"data":{"norad_id":61598,"intl_designator":"2024-188E","name":"ONEWEB-0690","alt_names":[],"object_type":"PAYLOAD","status":"ACTIVE","operator":null,"country":"UK","launch_date":"2024-10-20","launch_site_code":"AFWTR","launch_vehicle":null,"mission":null,"orbit_class":"UNKNOWN","rcs_meters":null,"size_class":null,"mass_kg":null,"dimensions":null,"purposes":["comms"],"wikipedia_slug":null,"has_3d_model":false,"image_url":null,"decayed_at":null,"tle_current":{"epoch":"2026-05-25T01:59:34.096992Z","epoch_age_seconds":61254,"freshness":"FRESH","line1":"1 61598U 24188E   26145.08303353 -.00000480  00000+0 -13893-2 0  9994","line2":"2 61598  87.8919  25.6581 0001886  61.6180 298.5138 13.11418334 81605","mean_motion":13.11418334,"eccentricity":0.0001886,"inclination_deg":87.8919,"raan_deg":25.6581,"arg_perigee_deg":61.618,"mean_anomaly_deg":298.5138,"bstar":-0.0013893,"rev_number":8160,"period_min":109.80477873966,"perigee_km":1216.2447643374,"apogee_km":1219.1099055045,"semimajor_km":7595.814334921,"source":"CELESTRAK","updated_at":"2026-05-25T13:38:22.748627Z"}}}